Istanbul, Turkey

7:57 AM +03 on January 19, 2018 (GMT +0300)
Ataturk

Weather History for LTBA - October, 2010

Change the Weather History Date:

Friday, October 15, 2010

  Actual Average Record
Temperature  
Mean Temperature 61 °F -  
Max Temperature 63 °F 62 °F 81 °F (2012)
Min Temperature 59 °F 51 °F 50 °F (2007)
Degree Days  
Heating Degree Days 4    
Growing Degree Days 11 (Base 50)    
Moisture  
Dew Point 58 °F    
Average Humidity 91    
Maximum Humidity 100    
Minimum Humidity 82    
Precipitation  
Precipitation 0.08 in - - ()
Sea Level Pressure  
Sea Level Pressure 29.72 in    
Wind  
Wind Speed 7 mph ()    
Max Wind Speed 13 mph    
Max Gust Speed -    
Visibility 4.3 miles    
Events Rain , Thunderstorm    
Averages and records for this station are not official NWS values.
T = Trace of Precipitation, MM = Missing Value Source: Averaged Metar Reports

Daily Weather History Graph

Daily Weather History Graph

Search for Another Location

Airport or City:

Trip Planner

Search our weather history database for the weather conditions in past years. The results will help you decide how hot, cold, wet, or windy it might be!

Date:

Astronomy

Oct. 15, 2010 Rise Set
Actual Time 7:15 AM EEST 6:24 PM EEST
Civil Twilight 6:48 AM EEST 6:52 PM EEST
Nautical Twilight 6:16 AM EEST 7:24 PM EEST
Astronomical Twilight 5:44 AM EEST 7:55 PM EEST
Moon 2:39 PM EEST (10/15) No Moon Set
Length of Visible Light 12h 04m
Length of Day
11h 08m
First Quarter, 55% of the Moon is Illuminated
Oct 15
First Quarter
Oct 23
Full
Oct 30
Last Quarter
Nov 6
New
Nov 13
First Quarter

Hourly Weather History & Observations

Time (EEST) Temp. Dew Point Humidity Pressure Visibility Wind Dir Wind Speed Gust Speed Precip Events Conditions
12:20 AM 62.6 °F 60.8 °F 94% 29.65 in 2.5 mi Variable 5.8 mph - N/A Rain Rain Showers
12:50 AM 62.6 °F 60.8 °F 94% 29.59 in 3.1 mi NNE 11.5 mph - N/A Rain , Thunderstorm Thunderstorms and Rain
1:20 AM 62.6 °F 60.8 °F 94% 29.62 in 3.1 mi Variable 1.2 mph - N/A Rain , Thunderstorm Light Thunderstorms and Rain
1:50 AM 62.6 °F 60.8 °F 94% 29.59 in - NE 3.5 mph - N/A Rain , Thunderstorm Light Thunderstorms and Rain
2:20 AM 60.8 °F 60.8 °F 100% 29.59 in 4.3 mi Variable 2.3 mph - N/A Rain Light Rain Showers
3:00 AM 61 °F 60 °F 93% 29.62 in 4 mi Calm Calm - - Rain Light Rain Showers
3:50 AM 60.8 °F 60.8 °F 100% 29.59 in 5.0 mi West 4.6 mph - N/A Rain Light Rain Showers
4:20 AM 60.8 °F 60.8 °F 100% 29.59 in 3.7 mi West 3.5 mph - N/A Rain Light Rain Showers
4:50 AM 60.8 °F 60.8 °F 100% 29.62 in - West 6.9 mph - N/A Rain Rain Showers
5:20 AM 60.8 °F 60.8 °F 100% 29.62 in 5.0 mi WNW 5.8 mph - N/A Rain Light Rain Showers
5:50 AM 60.8 °F 60.8 °F 100% 29.62 in 3.7 mi NW 5.8 mph - N/A Rain Light Rain Showers
6:20 AM 60.8 °F 60.8 °F 100% 29.62 in 4.3 mi NNE 5.8 mph - N/A Rain Light Rain Showers
6:50 AM 60.8 °F 60.8 °F 100% 29.65 in 6.2 mi Variable 5.8 mph - N/A Rain Light Rain Showers
7:20 AM 60.8 °F 60.8 °F 100% 29.65 in 6.2 mi NNE 6.9 mph - N/A Rain Light Rain Showers
7:50 AM 62.6 °F 60.8 °F 94% 29.65 in 6.2 mi NNE 8.1 mph - N/A Rain Light Rain Showers
8:20 AM 62.6 °F 60.8 °F 94% 29.68 in 6.2 mi Variable 5.8 mph - N/A Rain Light Rain Showers
8:50 AM 62.6 °F 59.0 °F 88% 29.68 in 4.3 mi Variable 5.8 mph - N/A Rain Light Rain Showers
9:00 AM 63 °F 60 °F 87% 29.70 in 4 mi NNE 5.8 mph - - Rain Light Rain Showers
9:20 AM 62.6 °F 59.0 °F 88% 29.71 in 4.3 mi NNE 8.1 mph - N/A Rain Light Rain Showers
9:50 AM 62.6 °F 59.0 °F 88% 29.71 in 6.2 mi NNE 8.1 mph - N/A Rain Light Rain Showers
10:20 AM 60.8 °F 59.0 °F 94% 29.74 in 3.7 mi North 11.5 mph - N/A Rain Rain Showers
10:50 AM 62.6 °F 59.0 °F 88% 29.74 in 4.3 mi NNE 10.4 mph - N/A Rain Light Rain Showers
11:20 AM 60.8 °F 57.2 °F 88% 29.74 in - NNE 11.5 mph - N/A Rain Rain Showers
11:50 AM 62.6 °F 57.2 °F 82% 29.74 in - Variable 9.2 mph - N/A Rain Rain Showers
12:20 PM 60.8 °F 57.2 °F 88% 29.77 in 4.3 mi NNE 11.5 mph - N/A Rain Light Rain Showers
12:50 PM 60.8 °F 57.2 °F 88% 29.77 in 4.3 mi NNE 11.5 mph - N/A Rain Light Rain Showers
1:20 PM 60.8 °F 57.2 °F 88% 29.77 in 4.3 mi NNE 11.5 mph - N/A Rain Light Rain Showers
1:50 PM 60.8 °F 57.2 °F 88% 29.77 in 3.7 mi NNE 10.4 mph - N/A Rain Light Rain Showers
2:20 PM 60.8 °F 57.2 °F 88% 29.77 in 4.3 mi NNE 10.4 mph - N/A Rain Light Rain Showers
2:50 PM 62.6 °F 59.0 °F 88% 29.77 in 3.7 mi NE 10.4 mph - N/A Rain Light Rain Showers
3:00 PM 62 °F 58 °F 83% 29.77 in 4 mi NE 10.4 mph - - Rain Light Rain Showers
3:20 PM 60.8 °F 57.2 °F 88% 29.77 in 1.9 mi NE 9.2 mph - N/A Rain Light Rain Showers
3:50 PM 60.8 °F 57.2 °F 88% 29.77 in 1.9 mi NNE 10.4 mph - N/A Rain Light Rain Showers
4:20 PM 60.8 °F 57.2 °F 88% 29.77 in 1.9 mi NNE 10.4 mph - N/A Rain Light Rain Showers
4:50 PM 60.8 °F 57.2 °F 88% 29.77 in 1.9 mi NNE 9.2 mph - N/A Rain Light Rain Showers
5:20 PM 60.8 °F 57.2 °F 88% 29.77 in 3.7 mi NE 9.2 mph - N/A Rain Light Rain Showers
5:50 PM 60.8 °F 57.2 °F 88% 29.77 in 4.3 mi NE 12.7 mph - N/A Rain Light Rain Showers
6:20 PM 59.0 °F 55.4 °F 88% 29.77 in 4.3 mi NE 11.5 mph - N/A Rain Light Rain Showers
6:50 PM 59.0 °F 55.4 °F 88% 29.80 in 4.3 mi NE 12.7 mph - N/A Rain Light Rain Showers
7:20 PM 59.0 °F 55.4 °F 88% 29.80 in 4.3 mi NE 11.5 mph - N/A   Mostly Cloudy
7:50 PM 59.0 °F 57.2 °F 94% 29.80 in 4.3 mi NE 10.4 mph - N/A Rain Light Rain Showers
8:20 PM 59.0 °F 55.4 °F 88% 29.80 in 4.3 mi NE 9.2 mph - N/A Rain Light Rain Showers
8:50 PM 59.0 °F 55.4 °F 88% 29.80 in 4.3 mi NE 10.4 mph - N/A Rain Light Rain Showers
9:00 PM 59 °F 56 °F 87% 29.81 in 4 mi NE 10.4 mph - - Rain Light Rain Showers
9:20 PM 59.0 °F 57.2 °F 94% 29.80 in 4.3 mi NE 9.2 mph - N/A Rain Light Rain Showers
9:50 PM 59.0 °F 57.2 °F 94% 29.80 in 6.2 mi NE 10.4 mph - N/A   Mostly Cloudy
10:20 PM 59.0 °F 57.2 °F 94% 29.80 in 6.2 mi NE 9.2 mph - N/A   Mostly Cloudy
10:50 PM 59.0 °F 55.4 °F 88% 29.83 in 6.2 mi NE 9.2 mph - N/A   Mostly Cloudy
11:20 PM 59.0 °F 55.4 °F 88% 29.83 in 6.2 mi NE 10.4 mph - N/A   Mostly Cloudy
11:50 PM 59.0 °F 55.4 °F 88% 29.83 in 6.2 mi NE 8.1 mph - N/A   Mostly Cloudy